Temp
13 14 14 14 14 14 14 14 14 14 14 15 15 14 14 13 13 13 13 13 12 12 12 12 12 12 12 11 11 11 11 12 11 11 12 13 13 13 13 13 12 13 13
11 12 13 13 14 13 13 13 13 13 14 14 13 13 13 13 12 12 12 12 12 12 12 11 11 11 11 11 11 11 10 10 11 10 10 9 12 13 13 13 13 13 13
10 10 11 12 13 13 13 13 13 13 13 13 13 13 13 12 12 12 12 11 11 11 11 11 11 11 10 10 10 10 10 9 10 10 10 9 10 12 13 13 13 12 12
10 10 11 11 12 12 12 12 12 12 12 12 13 12 11 11 10 10 11 11 11 11 10 10 10 10 10 10 9 9 9 9 9 9 10 10 10 10 9 12 12 12 12
9 9 10 11 11 12 12 12 12 12 12 12 12 11 11 11 10 10 11 11 11 10 10 10 10 10 10 9 9 9 9 9 8 8 8 8 9 10 8 9 9 11 11
8 9 10 11 11 11 12 12 12 12 11 11 11 11 11 10 10 10 10 10 10 10 10 10 9 9 9 9 9 8 8 8 8 8 8 7 7 8 8 8 9 9 10
8 7 8 10 11 11 12 12 11 11 11 11 11 10 10 10 9 9 9 9 9 10 10 9 9 9 9 9 8 8 8 8 7 7 7 7 7 7 7 7 8 7 9
8 7 9 10 11 12 12 11 11 11 11 11 10 10 10 10 10 10 10 10 10 10 10 9 9 9 9 8 8 8 8 7 7 7 7 7 7 7 7 6 6 7 8
7 8 9 10 10 11 11 11 11 11 10 10 10 10 10 10 10 10 10 10 10 10 10 10 9 9 8 8 7 7 7 7 6 6 6 6 6 6 6 6 6 6 6
8 8 8 9 10 10 10 10 9 9 9 9 9 9 8 8 8 7 8 8 8 9 9 9 9 8 8 8 7 7 6 6 6 6 6 6 6 5 5 5 5 5 5
6 6 6 7 8 8 8 8 8 8 8 8 8 8 8 7 7 7 7 7 7 8 8 7 7 7 7 7 7 6 6 6 6 5 5 5 5 5 5 4 4 4 4
5 5 6 6 7 7 8 8 8 8 7 7 7 6 6 6 6 6 6 6 6 6 6 6 6 6 6 6 6 6 6 6 5 5 5 5 5 5 4 4 3 3 3
4 4 5 5 6 6 7 7 7 6 6 6 5 5 5 5 5 5 5 5 5 5 5 6 6 6 7 7 6 6 5 5 5 5 4 4 4 4 4 4 3 3 2
4 4 4 4 5 5 5 6 6 5 5 5 5 5 5 5 5 5 5 5 5 5 5 5 5 6 6 6 5 5 5 5 5 4 4 4 4 4 3 3 3 2 2
4 4 4 4 5 5 5 6 6 5 5 5 5 5 5 5 5 5 5 4 4 4 4 4 5 5 5 4 5 5 4 4 4 4 4 4 4 4 3 3 3 2 1
5 5 4 4 4 5 5 5 5 5 5 5 5 5 5 5 5 4 4 4 4 4 4 4 4 4 4 5 5 4 3 3 3 3 3 4 3 3 3 2 2 2 2
5 4 4 4 5 5 5 5 5 5 5 5 5 5 5 4 4 4 3 3 3 2 3 3 3 3 4 4 4 4 3 3 3 3 3 3 2 2 2 3 3 2 2
4 3 4 4 5 6 5 5 5 4 4 4 4 4 4 3 3 3 3 3 2 2 2 2 2 2 2 3 4 4 3 2 3 3 3 2 3 3 2 2 2 3 3
3 4 5 4 4 4 4 4 4 3 3 3 3 3 3 2 2 2 2 2 2 2 1 1 1 1 2 3 3 3 2 2 2 2 2 2 2 2 1 1 1 2 2
4 4 4 3 3 4 4 3 3 3 2 3 3 2 2 2 2 1 2 1 1 1 1 1 1 1 1 2 2 2 2 2 1 2 2 2 1 2 1 1 1 0 1
3 4 3 3 4 4 4 3 2 2 3 2 2 2 2 1 1 1 1 1 1 1 1 1 1 0 1 1 2 1 2 1 1 1 1 1 1 1 1 2 2 2 2
3 3 2 2 3 3 3 2 1 2 2 2 1 1 1 1 0 0 0 -0 0 0 -0 -0 -0 -0 -0 1 1 1 1 1 1 1 1 1 2 2 1 1 2 2 2
2 3 2 2 2 2 2 1 1 1 1 0 0 -0 -0 -0 -1 -1 -1 -1 -0 -0 -0 -0 -0 -0 -0 0 1 1 1 1 1 1 1 1 1 1 1 1 1 2 2
1 2 1 1 1 1 1 1 1 0 -0 -1 -1 -1 -1 -1 -1 -1 -1 -1 -1 -1 -1 -0 -0 -0 -0 -0 -0 -0 0 0 0 0 1 1 1 1 1 1 1 1 1
1 1 1 0 0 0 0 -0 -0 -1 -1 -2 -2 -2 -2 -2 -2 -2 -2 -2 -2 -1 -1 -1 -1 -2 -2 -2 -1 -1 -1 -0 -0 -0 -1 -1 -1 -1 -0 -0 0 0 -0
1 0 0 -0 -0 -1 -1 -1 -1 -2 -2 -2 -2 -2 -2 -2 -2 -2 -2 -2 -2 -2 -1 -1 -1 -1 -1 -1 -1 -0 -0 -0 -0 -0 -1 -1 -1 -2 -2 -2 -2 -1 -1
Height
830 832 834 835 837 838 840 840 840 839 839 839 839 840 840 841 841 840 840 839 838 836 835 833 831 828 826 823 820 817 815 811 808 803 797 792 790 788 787 784 785 785 784
831 833 834 835 837 839 840 841 840 840 840 840 840 840 841 841 841 841 840 839 838 836 835 833 831 828 826 824 821 819 816 813 811 807 801 796 791 788 787 786 785 784 783
830 833 834 836 838 840 841 842 842 842 841 841 840 840 841 842 842 841 840 839 838 837 835 833 831 829 827 824 822 820 818 814 811 811 808 804 800 794 787 785 783 783 781
830 832 834 836 838 840 841 842 842 842 842 841 841 841 841 842 842 841 840 839 838 837 835 833 831 829 827 825 823 821 819 816 813 809 809 809 805 799 791 785 784 782 780
828 831 834 836 838 840 841 842 842 843 843 843 842 842 841 842 842 841 840 839 839 837 835 833 830 827 825 824 822 821 819 817 814 812 808 804 802 800 798 787 781 780 779
830 832 835 837 838 840 841 842 842 843 843 843 842 842 842 842 841 840 839 839 837 836 834 831 829 827 825 822 820 818 817 815 814 812 810 807 804 798 798 792 785 781 773
831 834 835 837 838 839 840 841 842 843 843 843 842 843 842 842 841 840 839 837 835 833 830 828 827 825 822 820 818 815 813 812 810 809 806 805 802 798 795 792 785 780 773
832 833 835 836 837 838 839 841 842 842 842 842 842 842 841 840 840 839 837 835 833 830 828 826 824 822 820 818 815 812 810 808 806 804 802 799 797 796 794 791 788 779 773
831 832 834 836 837 839 840 841 841 842 842 842 841 841 840 839 838 837 835 833 830 828 825 823 820 818 816 813 811 809 806 804 802 800 797 796 793 792 790 787 786 785 778
831 833 835 836 837 838 839 841 841 842 842 842 841 840 839 839 838 836 833 830 827 824 820 817 814 812 810 808 806 804 802 799 796 793 791 789 787 785 784 782 780 779 777
833 835 837 837 837 838 838 839 840 841 840 840 840 839 838 836 834 831 829 825 821 818 814 811 809 806 805 804 802 799 796 793 790 788 786 782 781 779 778 776 774 772 771
834 836 837 838 837 838 839 839 839 840 840 839 838 836 834 832 830 826 823 820 815 811 808 804 802 800 799 797 795 793 791 788 784 782 779 775 775 772 771 770 767 766 764
835 838 838 839 838 839 840 840 840 839 838 836 834 832 829 827 825 821 818 815 811 807 804 801 797 794 791 790 787 785 783 781 778 775 772 769 768 765 764 763 761 759 758
836 838 838 839 840 841 841 840 838 836 834 832 830 828 825 823 820 817 814 810 806 802 797 794 791 787 785 782 780 778 775 772 770 767 764 762 760 759 758 757 754 753 752
837 839 840 839 839 838 836 835 834 832 830 828 826 823 820 818 815 812 808 804 800 795 791 787 783 779 776 774 773 770 767 764 762 759 756 753 752 751 751 750 747 747 746
836 837 837 837 836 835 834 833 831 829 828 825 821 819 815 812 808 804 800 797 793 788 784 780 776 772 769 766 764 763 760 758 754 751 748 745 744 743 742 742 741 741 740
835 835 836 835 834 833 832 830 827 824 821 818 815 811 808 804 800 796 792 788 784 780 776 772 768 764 760 758 756 754 752 750 747 744 740 737 736 735 733 733 733 733 733
833 833 833 831 829 828 826 823 821 817 814 811 808 804 800 796 791 787 783 779 775 770 767 763 759 755 751 749 746 744 742 740 738 735 732 730 727 726 725 725 724 723 724
831 830 828 827 826 824 821 818 814 811 808 804 801 797 793 789 784 779 775 770 766 761 758 754 750 746 741 739 737 735 733 731 727 725 722 721 720 717 719 719 716 715 714
829 827 825 824 822 819 816 812 808 805 801 797 793 790 786 781 776 772 766 762 758 752 749 744 741 737 733 730 728 726 725 722 719 716 714 713 713 710 710 711 709 708 705
824 822 820 818 816 814 811 807 803 799 795 791 787 782 777 773 769 763 759 755 749 744 739 735 729 727 724 721 718 717 717 714 711 709 706 704 704 703 702 703 702 699 699
820 818 816 813 811 809 807 802 798 793 788 784 779 775 770 766 762 757 751 748 742 735 730 725 720 717 714 711 709 708 707 706 704 701 699 696 696 695 695 695 694 693 693
817 815 812 809 807 804 802 796 791 787 781 778 773 768 763 759 755 750 745 739 734 728 722 717 712 708 705 702 700 699 697 696 694 692 690 689 688 688 688 687 686 686 687
813 811 808 804 800 798 795 792 786 780 776 772 768 762 757 752 747 744 738 732 726 721 715 710 705 700 696 694 692 690 687 686 685 684 683 683 681 680 679 678 678 678 678
809 807 804 800 795 791 787 783 780 777 772 767 761 755 751 745 739 735 730 724 719 715 708 703 699 694 689 686 685 682 679 677 676 675 674 673 671 670 670 669 669 670 671
804 801 798 794 789 785 781 778 775 772 766 759 754 750 744 737 732 725 718 716 710 705 701 696 691 686 682 677 674 671 669 667 666 665 663 662 662 662 662 661 661 661 662
Wind_Speed
7 11 10 10 9 8 7 5 4 5 4 4 3 3 5 5 5 7 9 10 9 9 10 11 12 14 15 15 15 17 18 19 23 15 24 12 9 11 13 18 8 11 10
6 8 10 10 8 9 7 6 5 5 5 5 5 4 4 3 6 8 8 10 10 10 11 12 13 14 15 15 16 18 18 16 20 13 10 4 6 13 16 16 10 22 14
9 6 9 11 10 8 7 5 6 6 7 7 6 4 3 2 5 9 9 11 10 9 10 12 14 14 15 15 16 17 18 17 20 17 5 4 2 16 7 16 12 25 18
5 7 10 9 7 7 7 6 6 6 7 7 7 7 7 6 7 8 9 9 9 9 11 13 14 15 16 17 17 16 16 17 19 18 5 11 11 3 5 6 24 12 24
8 8 10 9 8 8 7 6 6 6 6 6 7 7 7 6 6 7 9 10 10 11 13 14 15 17 17 17 17 18 18 16 15 15 16 16 16 12 5 8 8 22 19
7 9 9 10 9 8 7 5 4 4 4 5 6 7 7 7 8 10 11 12 13 13 14 15 16 18 18 19 19 19 18 17 16 16 16 14 7 9 6 5 11 14 19
7 7 9 10 9 8 6 4 3 2 2 4 6 7 7 8 9 10 12 14 15 16 16 17 18 20 20 20 20 21 21 19 18 18 19 16 18 18 18 14 14 6 18
6 7 11 10 9 7 6 5 3 1 2 4 6 6 8 9 10 12 14 16 17 19 19 19 19 20 20 22 22 22 22 22 22 22 20 22 19 15 15 16 13 11 7
8 7 9 6 5 4 3 4 3 2 4 6 7 8 10 12 14 16 18 21 23 24 25 23 23 22 21 22 23 24 25 24 24 25 25 23 23 22 18 17 16 10 7
6 5 4 2 1 3 2 1 1 4 7 9 10 13 15 17 20 23 25 28 30 31 31 29 27 23 21 23 24 26 26 26 27 26 25 27 28 25 22 18 16 16 14
7 6 11 14 14 13 11 9 8 8 9 9 10 12 14 17 20 23 25 28 31 32 33 32 29 25 23 24 28 29 28 28 29 29 29 29 27 28 25 20 21 21 19
7 8 10 13 15 14 12 11 9 10 11 12 14 17 19 21 23 25 27 29 31 29 28 27 25 23 25 28 32 31 30 30 30 31 31 31 28 29 26 24 23 21 19
7 6 9 9 11 11 10 10 11 12 14 15 16 16 17 20 24 27 28 29 30 31 32 30 28 31 34 37 32 28 31 31 32 33 31 31 28 30 27 25 25 23 19
6 5 6 7 6 7 8 11 13 14 15 16 18 20 22 24 27 29 30 31 32 32 32 31 34 34 34 35 28 29 31 31 31 30 29 29 29 29 30 27 26 23 21
6 4 2 5 8 12 14 16 17 18 19 20 22 24 25 27 30 31 33 33 33 34 32 32 32 35 34 29 30 29 31 31 31 30 30 29 30 29 28 25 24 22 20
4 2 4 8 11 12 14 15 18 20 22 24 27 29 30 31 33 33 33 33 35 35 35 35 35 33 30 28 29 27 27 30 32 32 32 32 31 30 27 24 23 23 22
0 4 7 10 13 14 16 19 23 24 26 27 30 31 33 34 35 34 32 33 33 34 37 36 37 38 36 32 30 29 26 26 29 32 34 34 30 28 28 27 23 22 22
5 7 12 14 17 20 24 28 29 31 32 33 34 33 33 32 35 36 35 35 34 33 34 35 37 38 38 35 32 30 26 25 28 31 33 32 33 33 28 27 27 27 26
9 14 18 20 22 22 24 26 28 29 30 31 32 34 33 33 33 32 32 33 31 32 31 33 34 35 39 34 32 32 27 26 29 32 33 31 32 33 23 22 28 29 28
14 17 19 19 19 23 25 27 30 30 29 32 32 33 33 32 32 34 35 35 33 32 33 33 32 35 34 35 33 31 27 25 28 33 33 32 26 28 25 22 26 23 29
17 21 21 22 23 25 27 29 30 27 33 34 35 36 36 34 35 35 34 33 31 32 36 34 33 34 34 36 34 29 27 24 25 25 27 31 29 24 24 22 26 31 29
20 23 23 24 25 26 28 29 26 33 34 35 34 33 34 33 31 32 34 33 33 32 32 31 32 29 31 32 30 27 26 25 25 25 27 31 32 29 25 25 25 26 26
21 23 24 26 27 27 24 27 31 32 33 30 30 31 31 30 30 31 32 30 28 28 29 27 26 27 26 30 29 27 28 28 27 26 28 29 27 26 25 24 23 23 24
21 23 24 25 26 25 26 26 30 31 31 30 29 28 28 30 29 28 28 28 27 27 26 26 25 26 27 26 27 29 30 30 28 28 27 27 27 25 24 24 24 24 25
21 22 22 23 25 27 29 30 29 29 29 27 26 27 27 28 29 29 29 29 29 30 30 29 28 24 24 24 27 30 30 27 26 24 22 24 26 26 27 29 29 26 24
20 21 22 24 26 27 29 28 27 28 27 26 25 26 28 28 28 29 30 28 32 34 35 36 36 34 34 36 35 34 33 32 30 28 22 19 19 19 20 20 21 25 25
Wind_Direction
185 167 162 155 146 139 133 120 110 87 85 92 94 77 42 34 30 17 4 0 7 6 360 2 357 354 355 354 352 349 345 344 349 338 341 351 334 352 360 19 44 6 323
153 157 159 155 149 140 134 125 109 85 71 74 63 46 24 37 23 13 9 10 14 15 9 7 11 7 3 359 360 358 355 340 351 346 326 338 340 333 339 7 4 13 25
167 155 139 148 145 138 132 118 100 82 70 62 58 50 44 8 360 4 8 11 10 5 3 2 3 5 4 4 0 356 354 345 341 351 329 342 326 330 305 331 331 343 344
146 153 158 150 149 137 129 118 105 83 63 51 45 44 41 26 6 359 360 359 355 354 356 357 358 358 359 357 356 353 350 345 341 347 329 322 302 312 318 313 315 321 324
164 165 160 152 145 142 136 122 103 79 59 44 38 34 29 14 355 346 344 344 344 343 347 349 352 354 353 351 348 346 345 344 336 336 331 331 320 284 270 302 309 316 316
154 148 147 147 145 144 143 132 114 85 55 31 18 10 3 350 344 343 339 338 338 339 340 341 343 345 343 342 340 338 337 336 330 326 323 320 310 302 302 300 303 300 312
147 151 151 158 158 163 162 162 135 82 20 0 0 351 341 340 339 335 331 329 331 332 333 332 332 335 334 333 332 328 326 328 323 320 317 311 304 302 300 296 300 273 303
153 163 171 173 175 180 177 171 177 265 330 336 331 329 330 326 322 317 313 316 318 321 322 320 320 322 324 325 325 322 318 318 313 311 310 308 304 301 297 296 300 306 289
173 171 178 188 206 213 219 219 228 305 330 325 320 320 321 317 314 311 304 306 309 311 310 305 304 307 312 317 317 316 313 311 310 307 308 308 304 305 298 290 286 273 297
124 108 92 50 315 272 265 239 306 336 336 328 328 323 317 314 313 311 305 303 303 304 301 295 293 293 302 311 312 309 307 303 302 302 302 301 301 300 299 291 286 281 272
120 105 84 76 78 80 80 73 57 43 30 15 354 342 333 327 323 320 319 318 315 306 300 295 291 287 294 305 307 305 303 300 299 297 297 297 297 295 294 289 293 287 278
119 109 91 84 74 69 64 56 34 9 355 343 334 330 328 328 328 328 326 324 316 313 308 298 288 291 299 302 296 292 294 294 293 295 296 292 292 288 286 292 297 294 287
111 100 82 65 50 36 20 2 352 344 336 332 333 335 338 336 334 335 333 329 324 314 305 296 290 294 295 294 294 289 289 287 287 293 292 291 290 288 280 289 292 293 290
111 98 63 42 19 356 343 338 336 338 338 338 336 331 328 325 326 327 325 326 324 320 313 309 304 299 297 293 290 291 289 289 287 289 289 288 285 283 281 284 285 285 286
105 86 40 346 337 336 337 336 333 332 329 324 322 321 320 319 317 317 319 319 319 315 313 308 309 301 296 290 291 296 293 287 284 286 286 284 282 281 280 273 276 277 278
116 16 326 328 326 324 321 319 318 319 316 311 309 308 308 311 311 311 314 312 310 310 309 307 307 303 293 291 293 290 281 284 283 283 285 285 283 281 276 266 261 263 266
99 315 302 303 303 299 301 301 307 305 302 303 305 306 309 305 307 308 305 303 300 302 301 303 304 301 297 290 292 296 293 285 283 283 283 282 279 278 279 278 269 258 258
291 277 283 288 301 304 297 296 300 304 305 302 304 305 306 302 302 300 298 300 297 294 293 290 294 293 293 291 288 294 286 284 284 281 282 281 283 281 276 275 273 268 265
288 301 304 297 296 302 310 312 311 311 309 305 305 306 305 298 292 286 289 295 291 289 290 284 286 284 288 290 290 293 284 278 276 282 280 279 282 284 274 263 265 269 266
304 304 309 307 306 315 318 315 313 311 303 304 301 300 300 298 294 291 292 293 289 284 291 282 283 283 278 286 286 284 281 275 270 274 278 281 272 278 275 264 260 251 259
314 318 316 314 315 315 313 307 304 294 303 305 304 302 302 299 295 293 292 291 287 288 290 283 283 281 274 280 286 283 282 275 272 268 272 279 285 279 276 266 260 255 264
319 321 315 311 314 313 309 300 291 304 307 308 303 300 299 298 295 294 294 291 290 289 286 284 283 278 274 278 279 282 282 280 275 268 268 275 281 280 274 272 268 260 253
307 311 307 304 308 309 302 296 301 311 311 304 304 302 300 298 298 295 293 293 295 291 287 285 282 281 275 275 278 280 283 281 279 276 274 275 276 278 277 272 270 264 257
300 310 304 300 300 307 308 308 311 311 308 303 300 300 299 300 299 295 293 292 291 289 288 287 285 284 279 279 279 279 279 279 277 276 277 276 276 275 273 273 270 262 252
300 304 298 295 297 308 311 314 312 308 300 298 301 301 299 297 297 294 291 289 286 285 287 287 286 283 281 277 277 279 279 276 275 277 268 263 262 262 264 267 269 255 249
305 306 304 305 305 307 306 309 308 307 301 302 305 301 301 298 296 295 294 289 288 290 289 289 289 288 285 287 287 286 283 280 280 277 267 257 249 244 250 249 250 250 250